STARLINK-31471, 59568

Orbit data source: Space-Track

STARLINK-31471, 59568 is a payload satellite owned by SpaceX/Seattle (US) in LEO that was launched on Tue, 23 Apr 2024 UTC via an FALCON 9 launch vehicle from the Air Force Eastern Test Range (AFETR). Payload-class satellites include a variety of spacecraft equipped with specific instruments for various scientific and technological missions. These include communications satellites like Starlink; space stations such as the ISS; scientific satellites like the Hubble; Earth observation satellites from companies like Planet Labs, Umbra, and HawkEye 360; GPS; miniature CubeSats for education and research; and military/defense satellites.

Loading next visibility...
Identifier
59568, 2024-076E
Orbit
LEO
Country
Flag of USUS
Related business
Manufacturer
SpaceX/Seattle
Mission
Operational Commercial Communications
Bus & Motor
STARLINK V2M, Unknown motor
Mass
730 kg wet, ~700 kg dry
Launch date (UTC)
2024-04-23 (2 years ago)
Launch vehicle
FALCON 9
Launch site
Air Force Eastern Test Range (AFETR)
Object type
Payload
Rocket body
Debris
Shape & HBR
Box + 2 Pan, 17.7 m
Radar Cross Section
33.884 m², Large (>1 m²)

Expand to show TLE details & history
Last TLE update: 22 hours ago

TLE from 22 hours ago
0 STARLINK-31471
1 59568U 24076E   25302.65096932  .00008403  00000-0  31441-3 0  9995
2 59568  43.0005  28.8937 0000977 245.2330 114.8420 15.27591006 86376
Epoch: 2025-10-29T15:37Z
TLE epoch observation values (Epoch: 2025-10-29T15:37:23.749Z)
Latitude
-0.00001°
Longitude
116.32368°
Altitude
483.073 km
Speed
7.626 km/s
True Right ascension
01h 55m 34s
True Declination
0° 00' 00"
Sunlit
Object was in full shadow at epoch
Visualization orbit readout
Latitude
Unknown
Longitude
Unknown
Altitude
Unknown
Speed
Unknown
Apparent Right ascension
Unknown
Apparent Declination
Unknown
Sunlit
N/A
Visualization observer readout
Local Sidereal Time
09:09:48
Azimuth
Unknown
Elevation
Unknown
Doppler factor
Unknown
Orbital elements
Apogee altitude
485.632 km
Perigee altitude
484.291 km
Semi-major axis
6,863.098 km
Eccentricity
0.0001
Inclination
43.0005°
RAAN
28.8937°
Arg. of periapsis
245.233°
True anomaly
114.85216°
Mean anomaly
114.842°
Eccentric anomaly
114.84708°
Mean motion
3.81736 °/min
Orbital period
94.31 mins
BSTAR
0.00031441
Loading maneuver chart data...
Computing Atmospheric mass density...
Loading historical data...
Loading historical data...
Loading historical data...
Loading historical data...
Loading historical data...
Loading historical data...
Loading historical data...

Documentation

Showing up to 5 results
|